Tracking 20040 objects as of 19-Nov-2019
Live streaming from Space Station
objects crossing your sky now

SL-8 R/B

Track SL-8 R/B now!
10-day predictions


NORAD ID: 15752
Int'l Code: 1985-041B
Perigee: 977.8 km
Apogee: 1,013.2 km
Inclination: 83.0 °
Period: 104.9 minutes
Semi major axis: 7366 km
RCS: 4.952 m2 (large)
Launch date: May 30, 1985
Source: Commonwealth of Independent States (former USSR) (CIS)
Launch site: PLESETSK MISSILE AND SPACE COMPLEX (PKMTR)

Note: This is a ROCKET BODY
aabbcc
Your satellite tracking list
Your tracking list is empty




NASA's NSSDC Master Catalog

Two Line Element Set (TLE):
1 15752U 85041B   19321.73869464 +.00000002 +00000-0 -13674-4 0  9999
2 15752 082.9513 014.8049 0024064 190.0009 170.0671 13.73122599726864
Source of the keplerian elements: AFSPC